DW2715 Weather Reports


Display with metric or nautical units.
time (UTC)temp
F
wind
direction
speed
MPH
gust
MPH
rain 1hr
in
rain 24hr
in
rain mn
in
humidity
%
barometer
mb
20260509130548 79 208 2.0 10.0 0.00 0.00 0.00 42 1015.5
20260509125547 79 195 0.0 3.0 0.00 0.00 0.00 45 1015.5
20260509124541 79 153 0.0 6.0 0.00 0.00 0.00 44 1015.5
20260509124037 80 113 0.0 6.0 0.00 0.00 0.00 43 1015.5
20260509123536 80 211 1.0 7.0 0.00 0.00 0.00 45 1015.6
20260509122540 79 95 2.0 9.0 0.00 0.00 0.00 45 1015.6
20260509122037 79 102 1.0 7.0 0.00 0.00 0.00 46 1015.6
20260509121537 79 217 1.0 7.0 0.00 0.00 0.00 45 1015.7
20260509121037 79 158 1.0 5.0 0.00 0.00 0.00 47 1015.8
20260509120038 78 208 1.0 6.0 0.00 0.00 0.00 46 1015.8
20260509115032 77 136 0.0 7.0 0.00 0.00 0.00 48 1016.0
20260509114536 77 103 1.0 6.0 0.00 0.00 0.00 48 1016.0
20260509114033 76 161 1.0 6.0 0.00 0.00 0.00 49 1016.0
20260509113034 74 223 0.0 2.0 0.00 0.00 0.00 52 1016.1
20260509112533 74 294 1.0 7.0 0.00 0.00 0.00 50 1016.2
20260509112034 74 302 2.0 7.0 0.00 0.00 0.00 50 1016.2
20260509111533 74 231 1.0 7.0 0.00 0.00 0.00 52 1016.2
20260509111034 74 310 0.0 5.0 0.00 0.00 0.00 52 1016.3
20260509110533 74 292 1.0 5.0 0.00 0.00 0.00 50 1016.4
20260509110033 74 313 0.0 4.0 0.00 0.00 0.00 51 1016.5
20260509105532 75 290 0.0 0.0 0.00 0.00 0.00 50 1016.6
20260509104533 76 211 1.0 9.0 0.00 0.00 0.00 51 1016.7
20260509103532 75 142 0.0 5.0 0.00 0.00 0.00 53 1016.7
20260509103029 75 81 0.0 5.0 0.00 0.00 0.00 52 1016.8
20260509102530 74 201 0.0 5.0 0.00 0.00 0.00 53 1016.9
20260509102029 74 222 0.0 4.0 0.00 0.00 0.00 54 1016.9
20260509101029 74 217 0.0 4.0 0.00 0.00 0.00 55 1017.0
20260509100530 73 193 0.0 6.0 0.00 0.00 0.00 56 1017.0
20260509100029 73 200 1.0 6.0 0.00 0.00 0.00 57 1017.0
20260509095526 72 253 0.0 4.0 0.00 0.00 0.00 57 1017.0
20260509095021 72 250 0.0 3.0 0.00 0.00 0.00 58 1017.1
20260509094518 72 250 1.0 6.0 0.00 0.00 0.00 60 1017.1
20260509094019 72 221 2.0 7.0 0.00 0.00 0.00 59 1017.2
20260509093519 72 194 1.0 7.0 0.00 0.00 0.00 60 1017.2
20260509093019 71 181 0.0 7.0 0.00 0.00 0.00 62 1017.2
20260509092518 71 246 0.0 0.0 0.00 0.00 0.00 61 1017.3
20260509092016 71 209 0.0 0.0 0.00 0.00 0.00 61 1017.5
20260509091515 71 180 0.0 3.0 0.00 0.00 0.00 60 1017.5
20260509090515 71 198 1.0 4.0 0.00 0.00 0.00 62 1017.5
20260509090012 70 135 1.0 6.0 0.00 0.00 0.00 62 1017.5
20260509085512 70 260 1.0 6.0 0.00 0.00 0.00 63 1017.6
20260509085008 69 203 1.0 6.0 0.00 0.00 0.00 63 1017.6
20260509084506 69 232 1.0 6.0 0.00 0.00 0.00 63 1017.6
20260509083505 69 170 1.0 6.0 0.00 0.00 0.00 65 1017.5
20260509083005 69 209 1.0 5.0 0.00 0.00 0.00 65 1017.5
20260509082503 68 219 0.0 5.0 0.00 0.00 0.00 67 1017.6
20260509082002 68 292 0.0 4.0 0.00 0.00 0.00 67 1017.5
20260509081501 68 191 0.0 0.0 0.00 0.00 0.00 68 1017.6
20260509081000 67 193 0.0 0.0 0.00 0.00 0.00 69 1017.6
20260509075954 66 255 0.0 1.0 0.00 0.00 0.00 69 1017.6
20260509075454 66 256 0.0 1.0 0.00 0.00 0.00 69 1017.7
20260509074455 66 233 0.0 0.0 0.00 0.00 0.00 72 1017.7
20260509073957 65 309 0.0 0.0 0.00 0.00 0.00 72 1017.7
20260509072951 66 244 1.0 4.0 0.00 0.00 0.00 72 1017.7
20260509071946 65 198 0.0 3.0 0.00 0.00 0.00 74 1017.7
20260509071445 64 196 0.0 2.0 0.00 0.00 0.00 74 1017.7
20260509070942 64 355 0.0 0.0 0.00 0.00 0.00 74 1017.7
20260509070440 64 355 0.0 0.0 0.00 0.00 0.00 75 1017.6
20260509065938 64 355 0.0 0.0 0.00 0.00 0.00 76 1017.6
20260509065436 63 5 0.0 0.0 0.00 0.00 0.00 77 1017.6
20260509064432 62 5 0.0 0.0 0.00 0.00 0.00 79 1017.5
20260509063929 62 5 0.0 0.0 0.00 0.00 0.00 80 1017.5
20260509063429 61 5 0.0 0.0 0.00 0.00 0.00 81 1017.3
20260509062930 61 5 0.0 0.0 0.00 0.00 0.00 81 1017.3
20260509061931 60 256 0.0 0.0 0.00 0.00 0.00 83 1017.3
20260509060929 59 254 0.0 0.0 0.00 0.00 0.00 84 1017.5
20260509060426 59 252 0.0 0.0 0.00 0.00 0.00 85 1017.6
20260509055925 58 344 0.0 0.0 0.00 0.00 0.00 85 1017.5
20260509055422 58 344 0.0 0.0 0.00 0.00 0.00 86 1017.3
20260509054924 58 344 0.0 0.0 0.00 0.00 0.00 86 1017.3
20260509054419 57 344 0.0 0.0 0.00 0.00 0.00 86 1017.3
20260509053918 57 355 0.0 0.0 0.00 0.00 0.00 87 1017.3
20260509053418 57 355 0.0 0.0 0.00 0.00 0.00 87 1017.2
20260509052918 57 342 0.0 0.0 0.00 0.00 0.00 87 1017.2
20260509052415 57 338 0.0 0.0 0.00 0.00 0.00 88 1017.2
20260509051916 56 338 0.0 0.0 0.00 0.00 0.00 88 1017.2
20260509051416 56 307 0.0 0.0 0.00 0.00 0.00 88 1017.2
20260509050913 56 306 0.0 0.0 0.00 0.00 0.00 89 1017.2
20260509050412 56 307 0.0 0.0 0.00 0.00 0.00 89 1017.2
20260509045912 56 304 0.0 0.0 0.00 0.00 0.00 90 1017.1
20260509044908 55 214 0.0 0.0 0.00 0.00 0.00 90 1017.1
20260509043404 55 214 0.0 0.0 0.00 0.00 0.00 90 1017.0
20260509042904 55 214 0.0 0.0 0.00 0.00 0.00 90 1017.0
20260509042402 55 214 0.0 0.0 0.00 0.00 0.00 90 1017.0
20260509041902 55 214 0.0 0.0 0.00 0.00 0.00 89 1016.9
20260509041401 55 214 0.0 0.0 0.00 0.00 0.00 89 1016.9
20260509040902 55 214 0.0 0.0 0.00 0.00 0.00 89 1016.9
20260509040401 55 214 0.0 0.0 0.00 0.00 0.00 89 1016.8
20260509035903 54 214 0.0 0.0 0.00 0.00 0.00 89 1016.8
20260509035401 54 214 0.0 0.0 0.00 0.00 0.00 89 1016.8
20260509034905 54 214 0.0 0.0 0.00 0.00 0.00 89 1016.9
20260509034403 55 214 0.0 0.0 0.00 0.00 0.00 89 1016.8
20260509033901 55 214 0.0 0.0 0.00 0.00 0.00 89 1016.9
20260509033401 55 214 0.0 0.0 0.00 0.00 0.00 88 1016.9
20260509032902 55 214 0.0 0.0 0.00 0.00 0.00 89 1016.9
20260509032402 55 214 0.0 0.0 0.00 0.00 0.00 89 1016.9
20260509031902 55 214 0.0 0.0 0.00 0.00 0.00 89 1016.9
20260509030901 55 214 0.0 0.0 0.00 0.00 0.00 88 1016.9
20260509025902 55 214 0.0 0.0 0.00 0.00 0.00 88 1016.8
20260509025400 55 214 0.0 0.0 0.00 0.00 0.00 88 1016.7
20260509024901 55 214 0.0 0.0 0.00 0.00 0.00 88 1016.7
20260509023902 55 214 0.0 0.0 0.00 0.00 0.00 88 1016.8
20260509023403 55 214 0.0 0.0 0.00 0.00 0.00 88 1016.8
20260509022902 55 214 0.0 0.0 0.00 0.00 0.00 88 1016.9
20260509022401 56 214 0.0 0.0 0.00 0.00 0.00 87 1016.9
20260509021902 56 214 0.0 0.0 0.00 0.00 0.00 87 1017.0
20260509021401 56 214 0.0 0.0 0.00 0.00 0.00 87 1016.9
20260509020901 56 214 0.0 0.0 0.00 0.00 0.00 87 1016.9
20260509020359 56 214 0.0 0.0 0.00 0.00 0.00 87 1016.9
20260509015853 56 214 0.0 0.0 0.00 0.00 0.00 87 1016.8
20260509015354 56 214 0.0 0.0 0.00 0.00 0.00 87 1016.8
20260509014854 56 214 0.0 0.0 0.00 0.00 0.00 87 1016.7
20260509014353 56 214 0.0 0.0 0.00 0.00 0.00 87 1016.7
20260509013851 56 214 0.0 0.0 0.00 0.00 0.00 87 1016.7
20260509013350 56 214 0.0 0.0 0.00 0.00 0.00 86 1016.7
20260509012849 56 214 0.0 0.0 0.00 0.00 0.00 86 1016.7
20260509012349 56 214 0.0 0.0 0.00 0.00 0.00 86 1016.6
20260509011847 56 214 0.0 0.0 0.00 0.00 0.00 86 1016.6
20260509011348 56 214 0.0 0.0 0.00 0.00 0.00 86 1016.6
20260509010849 56 214 0.0 0.0 0.00 0.00 0.00 86 1016.6
20260509010345 56 214 0.0 0.0 0.00 0.00 0.00 86 1016.6
20260509005844 56 214 0.0 0.0 0.00 0.00 0.00 86 1016.6
20260509005343 57 214 0.0 0.0 0.00 0.00 0.00 85 1016.7
20260509004843 57 214 0.0 0.0 0.00 0.00 0.00 85 1016.6
20260509004344 57 214 0.0 0.0 0.00 0.00 0.00 85 1016.6
20260509003843 57 214 0.0 0.0 0.00 0.00 0.00 85 1016.6
20260509003344 57 214 0.0 0.0 0.00 0.00 0.00 85 1016.5
20260509002842 57 214 0.0 0.0 0.00 0.00 0.00 85 1016.5
20260509002337 57 214 0.0 0.0 0.00 0.00 0.00 85 1016.5
20260509001838 57 214 0.0 0.0 0.00 0.00 0.00 85 1016.4
20260509000837 58 214 0.0 0.0 0.00 0.00 0.00 85 1016.4
20260509000335 58 214 0.0 0.0 0.00 0.00 0.00 85 1016.5
20260508235835 58 214 0.0 0.0 0.00 0.00 0.00 85 1016.5
20260508235335 58 214 0.0 0.0 0.00 0.00 0.00 84 1016.5
20260508234330 58 214 0.0 0.0 0.00 0.00 0.00 84 1016.5
20260508233829 58 214 0.0 0.0 0.00 0.00 0.00 84 1016.5
20260508233330 58 214 0.0 0.0 0.00 0.00 0.00 84 1016.5
20260508232829 58 214 0.0 0.0 0.00 0.00 0.00 83 1016.6
20260508231829 58 214 0.0 0.0 0.00 0.00 0.00 83 1016.6
20260508231330 58 214 0.0 0.0 0.00 0.00 0.00 83 1016.6
20260508230829 59 214 0.0 0.0 0.00 0.00 0.00 83 1016.6
20260508230329 59 214 0.0 0.0 0.00 0.00 0.00 82 1016.6
20260508225829 59 214 0.0 0.0 0.00 0.00 0.00 82 1016.6
20260508225328 59 214 0.0 0.0 0.00 0.00 0.00 82 1016.6
20260508224329 59 214 0.0 0.0 0.00 0.00 0.00 81 1016.6
20260508223830 60 214 0.0 0.0 0.00 0.00 0.00 82 1016.7
20260508223329 60 214 0.0 0.0 0.00 0.00 0.00 81 1016.7
20260508222328 60 214 0.0 0.0 0.00 0.00 0.00 81 1016.7
20260508221830 60 214 0.0 0.0 0.00 0.00 0.00 81 1016.7
20260508221329 60 214 0.0 0.0 0.00 0.00 0.00 80 1016.6
20260508220830 60 214 0.0 0.0 0.00 0.00 0.00 80 1016.6
20260508220329 60 214 0.0 0.0 0.00 0.00 0.00 80 1016.6
20260508215828 60 214 0.0 0.0 0.00 0.00 0.00 80 1016.6
20260508215329 60 214 0.0 0.0 0.00 0.00 0.00 80 1016.6
20260508214828 61 214 0.0 0.0 0.00 0.00 0.00 79 1016.5
20260508213329 61 214 0.0 0.0 0.00 0.00 0.00 79 1016.5
20260508212828 61 214 0.0 0.0 0.00 0.00 0.00 79 1016.5
20260508212321 61 214 0.0 0.0 0.00 0.00 0.00 79 1016.5
20260508211816 61 214 0.0 0.0 0.00 0.00 0.00 78 1016.4
20260508211309 61 214 0.0 0.0 0.00 0.00 0.00 78 1016.4
20260508210810 62 214 0.0 0.0 0.00 0.00 0.00 78 1016.4
20260508210309 62 214 0.0 1.0 0.00 0.00 0.00 78 1016.5
20260508205807 62 213 0.0 2.0 0.00 0.00 0.00 77 1016.4
20260508205306 62 213 0.0 2.0 0.00 0.00 0.00 77 1016.4
20260508204802 62 217 0.0 2.0 0.00 0.00 0.00 77 1016.5
20260508204302 62 218 0.0 2.0 0.00 0.00 0.00 76 1016.5
20260508203802 62 218 0.0 2.0 0.00 0.00 0.00 76 1016.5
20260508203302 62 218 0.0 1.0 0.00 0.00 0.00 75 1016.4
20260508202801 63 218 0.0 0.0 0.00 0.00 0.00 75 1016.4
20260508201802 63 209 0.0 4.0 0.00 0.00 0.00 74 1016.3
20260508201301 63 209 0.0 4.0 0.00 0.00 0.00 73 1016.3
20260508200802 63 213 0.0 4.0 0.00 0.00 0.00 73 1016.3
20260508200301 64 215 0.0 0.0 0.00 0.00 0.00 72 1016.3
20260508195305 64 213 0.0 1.0 0.00 0.00 0.00 70 1016.2
20260508194801 64 204 0.0 3.0 0.00 0.00 0.00 69 1016.1
20260508194300 64 207 0.0 3.0 0.00 0.00 0.00 68 1016.1
20260508193754 65 205 0.0 0.0 0.00 0.00 0.00 67 1016.0
20260508193247 65 194 0.0 0.0 0.00 0.00 0.00 66 1015.9
20260508192242 65 194 0.0 0.0 0.00 0.00 0.00 65 1015.8
20260508191742 65 194 0.0 0.0 0.00 0.00 0.00 64 1015.7
20260508190240 66 188 0.0 0.0 0.00 0.00 0.00 63 1015.5
20260508185740 66 188 0.0 2.0 0.00 0.00 0.00 63 1015.5
20260508185237 66 188 0.0 2.0 0.00 0.00 0.00 63 1015.4
20260508184238 67 229 0.0 0.0 0.00 0.00 0.00 62 1015.3
20260508183735 67 232 0.0 0.0 0.00 0.00 0.00 61 1015.3
20260508183236 67 200 0.0 1.0 0.00 0.00 0.00 60 1015.2
20260508182735 67 200 0.0 1.0 0.00 0.00 0.00 60 1015.1
20260508182236 68 202 0.0 5.0 0.00 0.00 0.00 59 1015.0
20260508181736 68 211 0.0 5.0 0.00 0.00 0.00 58 1015.0
20260508181235 68 186 0.0 4.0 0.00 0.00 0.00 58 1014.9
20260508175732 69 195 1.0 6.0 0.00 0.00 0.00 57 1014.8
20260508174732 69 202 1.0 7.0 0.00 0.00 0.00 56 1014.7
20260508174231 69 191 0.0 5.0 0.00 0.00 0.00 56 1014.7
20260508173733 70 193 1.0 4.0 0.00 0.00 0.00 56 1014.6
20260508173230 70 198 1.0 4.0 0.00 0.00 0.00 55 1014.7
20260508172729 70 211 0.0 7.0 0.00 0.00 0.00 55 1014.7
20260508172230 70 157 1.0 9.0 0.00 0.00 0.00 55 1014.6
20260508171728 70 208 1.0 9.0 0.00 0.00 0.00 55 1014.6
20260508171230 70 192 1.0 5.0 0.00 0.00 0.00 56 1014.6
20260508170729 70 220 1.0 7.0 0.00 0.00 0.00 55 1014.6
20260508170229 70 218 3.0 9.0 0.00 0.00 0.00 55 1014.6
20260508165728 70 203 2.0 9.0 0.00 0.00 0.00 55 1014.6
20260508164730 71 186 1.0 7.0 0.00 0.00 0.00 53 1014.6
20260508163717 72 144 0.0 5.0 0.00 0.00 0.00 51 1014.6
20260508162705 72 199 0.0 0.0 0.00 0.00 0.00 49 1014.5
20260508162203 72 165 0.0 2.0 0.00 0.00 0.00 48 1014.5
20260508161703 73 196 0.0 2.0 0.00 0.00 0.00 48 1014.4
20260508161202 73 216 0.0 0.0 0.00 0.00 0.00 49 1014.4
20260508160703 73 170 0.0 4.0 0.00 0.00 0.00 49 1014.5
20260508160204 73 178 0.0 5.0 0.00 0.00 0.00 49 1014.5
20260508155202 73 189 0.0 6.0 0.00 0.00 0.00 48 1014.4
20260508154703 73 178 0.0 6.0 0.00 0.00 0.00 48 1014.4
20260508154202 73 158 1.0 6.0 0.00 0.00 0.00 49 1014.4
20260508153702 73 174 0.0 5.0 0.00 0.00 0.00 48 1014.4
20260508153203 74 196 0.0 5.0 0.00 0.00 0.00 48 1014.4
20260508152702 74 187 0.0 5.0 0.00 0.00 0.00 48 1014.5
20260508152202 74 163 0.0 2.0 0.00 0.00 0.00 48 1014.5
20260508151703 74 138 1.0 8.0 0.00 0.00 0.00 49 1014.5
20260508151203 74 208 1.0 8.0 0.00 0.00 0.00 47 1014.5
20260508150702 75 202 1.0 7.0 0.00 0.00 0.00 48 1014.5
20260508150203 75 180 0.0 7.0 0.00 0.00 0.00 47 1014.5
20260508145701 75 168 1.0 7.0 0.00 0.00 0.00 47 1014.6
20260508145202 75 172 2.0 8.0 0.00 0.00 0.00 48 1014.6
20260508144203 76 199 0.0 7.0 0.00 0.00 0.00 48 1014.6
20260508143703 76 188 1.0 8.0 0.00 0.00 0.00 48 1014.6
20260508143202 76 189 1.0 8.0 0.00 0.00 0.00 47 1014.6
20260508142703 76 259 1.0 8.0 0.00 0.00 0.00 47 1014.6
20260508142203 76 185 1.0 7.0 0.00 0.00 0.00 47 1014.7
20260508141703 76 192 2.0 10.0 0.00 0.00 0.00 47 1014.7
20260508141202 76 156 3.0 10.0 0.00 0.00 0.00 47 1014.8
20260508140702 75 172 2.0 7.0 0.00 0.00 0.00 47 1014.8
20260508140203 75 122 1.0 7.0 0.00 0.00 0.00 47 1014.8
20260508135702 75 180 2.0 7.0 0.00 0.00 0.00 47 1014.8
20260508135203 75 171 2.0 9.0 0.00 0.00 0.00 47 1014.9
20260508134705 75 154 2.0 10.0 0.00 0.00 0.00 47 1015.0
20260508134204 75 179 2.0 10.0 0.00 0.00 0.00 48 1015.0
20260508133702 75 126 2.0 9.0 0.00 0.00 0.00 49 1015.0
20260508132652 75 232 1.0 9.0 0.00 0.00 0.00 50 1015.1
20260508132146 75 155 1.0 8.0 0.00 0.00 0.00 51 1015.1
20260508131640 75 142 1.0 7.0 0.00 0.00 0.00 52 1015.1
20260508131141 75 136 1.0 6.0 0.00 0.00 0.00 53 1015.1